Time,TemperatureF,DewpointF,PressureIn,WindDirection,WindDirectionDegrees,WindSpeedMPH,WindSpeedGustMPH,Humidity,HourlyPrecipIn,Conditions,Clouds,dailyrainin,SoftwareType,DateUTC
2013-02-20 00:03:00,51.1,50.0,30.03,SW,232,0.0,-999.0,94,-99.99,,,0.00,weatherlink.com 1.10,2013-02-20 05:03:00,
2013-02-20 00:18:00,50.4,49.0,30.03,SW,232,0.0,-999.0,94,-99.99,,,0.00,weatherlink.com 1.10,2013-02-20 05:18:00,
2013-02-20 00:33:00,49.8,48.0,30.04,SW,232,0.0,-999.0,94,-99.99,,,0.00,weatherlink.com 1.10,2013-02-20 05:33:00,
2013-02-20 00:48:00,48.9,47.0,30.04,SW,232,0.0,-999.0,94,-99.99,,,0.00,weatherlink.com 1.10,2013-02-20 05:48:00,
2013-02-20 01:03:00,48.0,46.0,30.05,SW,232,0.0,-999.0,93,-99.99,,,0.00,weatherlink.com 1.10,2013-02-20 06:03:00,
2013-02-20 01:18:00,47.6,46.0,30.05,SW,232,0.0,-999.0,93,-99.99,,,0.00,weatherlink.com 1.10,2013-02-20 06:18:00,
2013-02-20 01:33:00,46.8,45.0,30.05,SW,232,0.0,-999.0,93,-99.99,,,0.00,weatherlink.com 1.10,2013-02-20 06:33:00,
2013-02-20 01:48:00,46.1,44.0,30.05,SW,232,0.0,-999.0,93,-99.99,,,0.00,weatherlink.com 1.10,2013-02-20 06:48:00,
2013-02-20 02:04:00,45.4,44.0,30.05,SW,232,0.0,-999.0,93,-99.99,,,0.00,weatherlink.com 1.10,2013-02-20 07:04:00,
2013-02-20 02:19:00,44.6,43.0,30.05,SW,232,0.0,-999.0,93,-99.99,,,0.00,weatherlink.com 1.10,2013-02-20 07:19:00,
2013-02-20 02:34:00,44.0,42.0,30.06,SW,232,0.0,-999.0,93,-99.99,,,0.00,weatherlink.com 1.10,2013-02-20 07:34:00,
2013-02-20 02:49:00,43.3,42.0,30.06,SW,232,0.0,-999.0,94,-99.99,,,0.01,weatherlink.com 1.10,2013-02-20 07:49:00,
2013-02-20 03:19:00,42.1,41.0,30.05,SW,232,0.0,-999.0,94,-99.99,,,0.01,weatherlink.com 1.10,2013-02-20 08:19:00,
2013-02-20 03:34:00,41.4,40.0,30.06,SW,232,0.0,-999.0,94,-99.99,,,0.01,weatherlink.com 1.10,2013-02-20 08:34:00,
2013-02-20 03:49:00,40.7,39.0,30.06,SW,232,0.0,-999.0,94,-99.99,,,0.01,weatherlink.com 1.10,2013-02-20 08:49:00,
2013-02-20 04:04:00,40.0,38.0,30.06,SW,232,0.0,-999.0,93,-99.99,,,0.01,weatherlink.com 1.10,2013-02-20 09:04:00,
2013-02-20 04:19:00,39.5,38.0,30.06,SW,232,0.0,-999.0,94,-99.99,,,0.01,weatherlink.com 1.10,2013-02-20 09:19:00,
2013-02-20 04:34:00,39.0,38.0,30.06,SW,232,0.0,-999.0,94,-99.99,,,0.01,weatherlink.com 1.10,2013-02-20 09:34:00,
2013-02-20 04:49:00,38.3,37.0,30.07,SW,232,0.0,-999.0,94,-99.99,,,0.01,weatherlink.com 1.10,2013-02-20 09:49:00,
2013-02-20 05:04:00,37.5,36.0,30.07,SW,232,0.0,-999.0,93,-99.99,,,0.01,weatherlink.com 1.10,2013-02-20 10:04:00,
2013-02-20 05:19:00,37.0,36.0,30.08,SW,232,0.0,-999.0,94,-99.99,,,0.01,weatherlink.com 1.10,2013-02-20 10:19:00,
2013-02-20 05:34:00,36.6,35.0,30.08,SW,232,0.0,-999.0,94,-99.99,,,0.01,weatherlink.com 1.10,2013-02-20 10:34:00,
2013-02-20 05:49:00,36.0,35.0,30.08,SW,232,0.0,-999.0,94,-99.99,,,0.01,weatherlink.com 1.10,2013-02-20 10:49:00,
2013-02-20 06:04:00,35.5,34.0,30.09,SW,232,0.0,-999.0,94,-99.99,,,0.01,weatherlink.com 1.10,2013-02-20 11:04:00,
2013-02-20 06:19:00,34.9,33.0,30.09,SW,232,0.0,-999.0,94,-99.99,,,0.01,weatherlink.com 1.10,2013-02-20 11:19:00,
2013-02-20 06:34:00,34.5,33.0,30.10,SW,232,0.0,-999.0,94,-99.99,,,0.01,weatherlink.com 1.10,2013-02-20 11:34:00,
2013-02-20 06:49:00,33.9,32.0,30.10,SW,232,0.0,-999.0,94,-99.99,,,0.01,weatherlink.com 1.10,2013-02-20 11:49:00,
2013-02-20 07:04:00,33.6,32.0,30.11,SW,232,0.0,-999.0,94,-99.99,,,0.01,weatherlink.com 1.10,2013-02-20 12:04:00,
2013-02-20 07:19:00,33.6,32.0,30.12,SW,232,0.0,-999.0,94,-99.99,,,0.01,weatherlink.com 1.10,2013-02-20 12:19:00,
2013-02-20 07:34:00,33.4,32.0,30.13,SW,232,0.0,-999.0,94,-99.99,,,0.01,weatherlink.com 1.10,2013-02-20 12:34:00,
2013-02-20 07:49:00,33.5,32.0,30.13,SW,232,0.0,-999.0,94,-99.99,,,0.01,weatherlink.com 1.10,2013-02-20 12:49:00,
2013-02-20 08:04:00,34.2,33.0,30.13,SW,232,0.0,-999.0,94,-99.99,,,0.01,weatherlink.com 1.10,2013-02-20 13:04:00,
2013-02-20 08:19:00,35.5,34.0,30.14,SW,232,0.0,-999.0,95,-99.99,,,0.01,weatherlink.com 1.10,2013-02-20 13:19:00,
2013-02-20 08:35:00,37.1,36.0,30.14,SW,232,0.0,-999.0,95,-99.99,,,0.01,weatherlink.com 1.10,2013-02-20 13:35:00,
2013-02-20 08:50:00,39.2,38.0,30.14,SW,232,0.0,-999.0,95,-99.99,,,0.01,weatherlink.com 1.10,2013-02-20 13:50:00,
2013-02-20 09:05:00,41.1,40.0,30.15,SW,232,0.0,-999.0,95,-99.99,,,0.01,weatherlink.com 1.10,2013-02-20 14:05:00,
2013-02-20 09:20:00,42.8,42.0,30.15,SW,232,0.0,-999.0,95,-99.99,,,0.01,weatherlink.com 1.10,2013-02-20 14:20:00,
2013-02-20 09:35:00,44.7,41.0,30.15,NNW,344,0.0,-999.0,88,-99.99,,,0.01,weatherlink.com 1.10,2013-02-20 14:35:00,
2013-02-20 09:50:00,46.9,41.0,30.14,NNW,339,1.0,-999.0,79,-99.99,,,0.01,weatherlink.com 1.10,2013-02-20 14:50:00,
2013-02-20 10:05:00,48.8,40.0,30.13,North,351,0.0,-999.0,73,-99.99,,,0.01,weatherlink.com 1.10,2013-02-20 15:05:00,
2013-02-20 10:20:00,50.6,40.0,30.13,NNE,15,0.0,-999.0,67,-99.99,,,0.01,weatherlink.com 1.10,2013-02-20 15:20:00,
2013-02-20 10:35:00,51.6,38.0,30.14,SE,146,3.0,-999.0,60,-99.99,,,0.01,weatherlink.com 1.10,2013-02-20 15:35:00,
2013-02-20 10:50:00,53.2,39.0,30.13,SE,138,0.0,-999.0,58,-99.99,,,0.01,weatherlink.com 1.10,2013-02-20 15:50:00,
2013-02-20 11:05:00,53.6,36.0,30.14,NE,36,1.0,-999.0,52,-99.99,,,0.01,weatherlink.com 1.10,2013-02-20 16:05:00,
2013-02-20 11:20:00,54.6,38.0,30.14,NNW,347,0.0,-999.0,54,-99.99,,,0.01,weatherlink.com 1.10,2013-02-20 16:20:00,
2013-02-20 11:35:00,55.4,37.0,30.13,NNW,344,0.0,-999.0,50,-99.99,,,0.01,weatherlink.com 1.10,2013-02-20 16:35:00,
2013-02-20 11:50:00,56.1,34.0,30.12,ENE,76,1.0,-999.0,43,-99.99,,,0.01,weatherlink.com 1.10,2013-02-20 16:50:00,
2013-02-20 12:05:00,56.1,33.0,30.11,SSW,200,0.0,-999.0,42,-99.99,,,0.01,weatherlink.com 1.10,2013-02-20 17:05:00,
2013-02-20 12:20:00,57.5,36.0,30.10,NNE,19,0.0,-999.0,44,-99.99,,,0.01,weatherlink.com 1.10,2013-02-20 17:20:00,
2013-02-20 12:35:00,57.6,32.0,30.10,ENE,67,1.0,-999.0,38,-99.99,,,0.01,weatherlink.com 1.10,2013-02-20 17:35:00,
2013-02-20 12:50:00,57.2,32.0,30.09,SSW,195,0.0,-999.0,39,-99.99,,,0.01,weatherlink.com 1.10,2013-02-20 17:50:00,
2013-02-20 13:05:00,58.0,34.0,30.08,NW,319,1.0,-999.0,41,-99.99,,,0.01,weatherlink.com 1.10,2013-02-20 18:05:00,
2013-02-20 13:20:00,58.8,32.0,30.07,SW,223,0.0,-999.0,36,-99.99,,,0.01,weatherlink.com 1.10,2013-02-20 18:20:00,
2013-02-20 13:35:00,59.1,34.0,30.06,North,5,1.0,-999.0,39,-99.99,,,0.01,weatherlink.com 1.10,2013-02-20 18:35:00,
2013-02-20 13:50:00,59.7,33.0,30.05,SW,225,0.0,-999.0,36,-99.99,,,0.01,weatherlink.com 1.10,2013-02-20 18:50:00,
2013-02-20 14:05:00,59.3,37.0,30.05,South,183,4.0,-999.0,43,-99.99,,,0.01,weatherlink.com 1.10,2013-02-20 19:05:00,
2013-02-20 14:20:00,58.3,37.0,30.05,East,90,0.0,-999.0,45,-99.99,,,0.01,weatherlink.com 1.10,2013-02-20 19:20:00,
2013-02-20 14:35:00,58.2,37.0,30.05,SW,230,0.0,-999.0,45,-99.99,,,0.01,weatherlink.com 1.10,2013-02-20 19:35:00,
2013-02-20 14:50:00,58.0,37.0,30.05,SE,129,0.0,-999.0,45,-99.99,,,0.01,weatherlink.com 1.10,2013-02-20 19:50:00,
2013-02-20 15:05:00,57.3,36.0,30.06,East,87,3.0,-999.0,46,-99.99,,,0.01,weatherlink.com 1.10,2013-02-20 20:05:00,
2013-02-20 15:20:00,57.1,36.0,30.06,SW,219,2.0,-999.0,45,-99.99,,,0.01,weatherlink.com 1.10,2013-02-20 20:20:00,
2013-02-20 15:35:00,57.2,37.0,30.05,SW,230,3.0,-999.0,47,-99.99,,,0.01,weatherlink.com 1.10,2013-02-20 20:35:00,
2013-02-20 15:50:00,56.7,38.0,30.06,SSW,201,2.0,-999.0,49,-99.99,,,0.01,weatherlink.com 1.10,2013-02-20 20:50:00,
2013-02-20 16:05:00,56.0,36.0,30.06,SSW,204,3.0,-999.0,47,-99.99,,,0.01,weatherlink.com 1.10,2013-02-20 21:05:00,
2013-02-20 16:20:00,55.6,36.0,30.05,SW,219,1.0,-999.0,48,-99.99,,,0.01,weatherlink.com 1.10,2013-02-20 21:20:00,
2013-02-20 16:35:00,55.2,36.0,30.05,South,180,1.0,-999.0,49,-99.99,,,0.01,weatherlink.com 1.10,2013-02-20 21:35:00,
2013-02-20 16:50:00,54.8,36.0,30.05,SSE,163,1.0,-999.0,49,-99.99,,,0.01,weatherlink.com 1.10,2013-02-20 21:50:00,
2013-02-20 17:05:00,54.3,35.0,30.06,SSW,195,0.0,-999.0,49,-99.99,,,0.01,weatherlink.com 1.10,2013-02-20 22:05:00,
2013-02-20 17:20:00,53.7,36.0,30.06,SSW,206,1.0,-999.0,51,-99.99,,,0.01,weatherlink.com 1.10,2013-02-20 22:20:00,
2013-02-20 17:35:00,53.0,37.0,30.07,SSW,206,0.0,-999.0,54,-99.99,,,0.01,weatherlink.com 1.10,2013-02-20 22:35:00,
2013-02-20 17:50:00,52.1,37.0,30.08,SSW,206,0.0,-999.0,57,-99.99,,,0.01,weatherlink.com 1.10,2013-02-20 22:50:00,
2013-02-20 18:05:00,51.3,37.0,30.08,SSW,206,0.0,-999.0,59,-99.99,,,0.01,weatherlink.com 1.10,2013-02-20 23:05:00,
2013-02-20 18:20:00,50.3,37.0,30.09,SSW,206,0.0,-999.0,61,-99.99,,,0.01,weatherlink.com 1.10,2013-02-20 23:20:00,
2013-02-20 18:35:00,49.5,37.0,30.09,SSW,206,0.0,-999.0,63,-99.99,,,0.01,weatherlink.com 1.10,2013-02-20 23:35:00,
2013-02-20 18:50:00,49.0,38.0,30.09,SSW,206,0.0,-999.0,65,-99.99,,,0.01,weatherlink.com 1.10,2013-02-20 23:50:00,
2013-02-20 19:05:00,48.7,38.0,30.09,SSW,206,0.0,-999.0,66,-99.99,,,0.01,weatherlink.com 1.10,2013-02-21 00:05:00,
2013-02-20 19:20:00,48.5,38.0,30.10,SSW,206,0.0,-999.0,67,-99.99,,,0.01,weatherlink.com 1.10,2013-02-21 00:20:00,
2013-02-20 19:35:00,48.3,38.0,30.10,SSW,206,0.0,-999.0,67,-99.99,,,0.01,weatherlink.com 1.10,2013-02-21 00:35:00,
2013-02-20 19:50:00,48.0,38.0,30.10,SSW,206,0.0,-999.0,69,-99.99,,,0.01,weatherlink.com 1.10,2013-02-21 00:50:00,
2013-02-20 20:05:00,47.9,39.0,30.09,SSW,206,0.0,-999.0,70,-99.99,,,0.01,weatherlink.com 1.10,2013-02-21 01:05:00,
2013-02-20 20:20:00,48.0,39.0,30.09,SSW,206,0.0,-999.0,70,-99.99,,,0.01,weatherlink.com 1.10,2013-02-21 01:20:00,
2013-02-20 20:35:00,48.1,39.0,30.08,SSW,206,0.0,-999.0,70,-99.99,,,0.01,weatherlink.com 1.10,2013-02-21 01:35:00,
2013-02-20 20:50:00,48.1,39.0,30.07,SSW,206,0.0,-999.0,70,-99.99,,,0.01,weatherlink.com 1.10,2013-02-21 01:50:00,
2013-02-20 21:05:00,48.0,39.0,30.08,SSW,206,0.0,-999.0,72,-99.99,,,0.01,weatherlink.com 1.10,2013-02-21 02:05:00,
2013-02-20 21:20:00,48.0,40.0,30.07,SSW,206,0.0,-999.0,73,-99.99,,,0.01,weatherlink.com 1.10,2013-02-21 02:20:00,
2013-02-20 21:35:00,47.8,40.0,30.07,SSW,206,0.0,-999.0,73,-99.99,,,0.01,weatherlink.com 1.10,2013-02-21 02:35:00,
2013-02-20 21:50:00,47.8,40.0,30.09,SSW,206,0.0,-999.0,75,-99.99,,,0.01,weatherlink.com 1.10,2013-02-21 02:50:00,
2013-02-20 22:05:00,47.7,40.0,30.09,SSW,206,0.0,-999.0,75,-99.99,,,0.01,weatherlink.com 1.10,2013-02-21 03:05:00,
2013-02-20 22:21:00,47.6,40.0,30.08,SSW,206,0.0,-999.0,76,-99.99,,,0.01,weatherlink.com 1.10,2013-02-21 03:21:00,
2013-02-20 22:35:00,46.9,40.0,30.09,SSW,206,0.0,-999.0,76,-99.99,,,0.01,weatherlink.com 1.10,2013-02-21 03:35:00,
2013-02-20 22:50:00,45.7,39.0,30.08,SSW,206,0.0,-999.0,78,-99.99,,,0.01,weatherlink.com 1.10,2013-02-21 03:50:00,
2013-02-20 23:06:00,44.5,39.0,30.08,SSW,206,0.0,-999.0,80,-99.99,,,0.01,weatherlink.com 1.10,2013-02-21 04:06:00,
2013-02-20 23:21:00,43.5,38.0,30.08,SSW,206,0.0,-999.0,82,-99.99,,,0.01,weatherlink.com 1.10,2013-02-21 04:21:00,
2013-02-20 23:36:00,42.6,38.0,30.08,SSW,206,0.0,-999.0,82,-99.99,,,0.01,weatherlink.com 1.10,2013-02-21 04:36:00,
2013-02-20 23:51:00,41.9,38.0,30.09,SSW,206,0.0,-999.0,85,-99.99,,,0.01,weatherlink.com 1.10,2013-02-21 04:51:00,